This demonstration page uses our WeatherBlox Daily Observations layout. Learn more.

Left ArrowRight Arrow

44.8408, -93.29828

Hourly Observations for September 17, 2022

Temp ( °F °C ) Dew Point ( °F °C ) Humidity (%) Winds ( mph kmh ) Pressure ( in mb ) Visibility ( mi km ) Precip ( " mm )
12:53 am 00:53 Mostly Clear 69 20.6 63 17.2 81 81 S 5 7 29.88 1012 10 16 0.00 0.00
1:53 am 01:53 Mostly Clear 69 20.6 62 16.7 78 78 SSW 5 7 29.88 1012 10 16 0.00 0.00
2:53 am 02:53 Mostly Cloudy 69 20.6 62 16.7 78 78 SSW 7 11 29.88 1012 10 16 0.00 0.00
3:53 am 03:53 Mostly Cloudy 69 20.6 62 16.7 78 78 S 6 9 29.86 1011 10 16 0.00 0.00
4:53 am 04:53 Mostly Cloudy 67 19.4 62 16.7 84 84 S 7 11 29.85 1011 10 16 0.00 0.00
5:53 am 05:53 Mostly Cloudy 67 19.4 62 16.7 84 84 SSW 6 9 29.85 1011 10 16 0.00 0.00
6:53 am 06:53 Mostly Cloudy 67 19.4 62 16.7 84 84 SSE 6 9 29.84 1010 10 16 0.00 0.00
7:53 am 07:53 Mostly Cloudy 66 18.9 61 16.1 84 84 SE 8 13 29.82 1010 10 16 0.00 0.00
8:53 am 08:53 Cloudy 68 20 61 16.1 78 78 S 7 11 29.84 1011 10 16 0.00 0.00
9:53 am 09:53 Cloudy 69 20.6 61 16.1 75 75 Calm 29.83 1010 10 16 0.00 0.00
10:53 am 10:53 Mostly Cloudy 70 21.1 61 16.1 73 73 S 10 17 29.83 1010 10 16 0.00 0.00
11:53 am 11:53 Mostly Cloudy 75 23.9 62 16.7 64 64 S 10 17 29.81 1009 10 16 0.00 0.00
12:53 pm 12:53 Mostly Cloudy 76 24.4 61 16.1 60 60 SSW 13 20 29.80 1009 10 16 0.00 0.00
1:53 pm 13:53 Mostly Cloudy 78 25.6 62 16.7 58 58 SW 12 19 29.79 1009 10 16 0.00 0.00
2:53 pm 14:53 Partly Cloudy 81 27.2 61 16.1 51 51 S 12 19 29.77 1008 10 16 0.00 0.00
3:53 pm 15:53 Partly Cloudy 82 27.8 62 16.7 51 51 SSW 8 13 29.76 1008 10 16 0.00 0.00
4:53 pm 16:53 Partly Cloudy 82 27.8 63 17.2 53 53 S 9 15 29.75 1008 10 16 0.00 0.00
5:53 pm 17:53 Partly Cloudy 82 27.8 65 18.3 56 56 SSW 9 15 29.75 1008 10 16 0.00 0.00
6:53 pm 18:53 Partly Cloudy 80 26.7 64 17.8 58 58 S 10 17 29.76 1008 10 16 0.00 0.00
7:53 pm 19:53 Partly Cloudy 76 24.4 64 17.8 67 67 SSE 9 15 29.76 1008 10 16 0.00 0.00
8:53 pm 20:53 Partly Cloudy 76 24.4 65 18.3 69 69 S 9 15 29.76 1008 10 16 0.00 0.00
9:53 pm 21:53 Partly Cloudy 76 24.4 63 17.2 64 64 S 10 17 29.75 1007 10 16 0.00 0.00
10:53 pm 22:53 Partly Cloudy 75 23.9 63 17.2 66 66 SW 12 19 29.77 1008 10 16 0.00 0.00
11:53 pm 23:53 Partly Cloudy 73 22.8 63 17.2 71 71 SSW 13 20 29.78 1008 10 16 0.00 0.00

Powered by AerisWeather